Regional Weather Roundup
Issued by NWS

Home | Current Version | Previous Version | Graphics & Text | Print | Product List | Glossary On
Versions: 1 2 3 4 5 6 7 8 9 10 11 12 13 14 15 16 17 18 19 20 21 22 23 24 25 26 27 28 29 30 31 32 33 34 35 36 37 38 39 40 41 42 43 44 45 46 47 48 49 50
000
ASUS43 KLOT 171303
RWRIL

ILLINOIS REGIONAL WEATHER ROUNDUP
NATIONAL WEATHER SERVICE CHICAGO/ROMEOVILLE IL
800 AM CDT THU AUG 17 2017

NOTE: "FAIR" INDICATES FEW OR NO CLOUDS BELOW 12,000 FEET WITH NO
SIGNIFICANT WEATHER AND/OR OBSTRUCTIONS TO VISIBILITY.

* THESE STATIONS ARE NOT UNDER NWS QUALITY CONTROL. THEY ALSO MAY NOT
  REPORT WEATHER SUCH AS PRECIPITATION OR FOG.

ILZ001-002-007-009-015-016-024-171400-
NORTHWEST ILLINOIS

CITY           SKY/WX    TMP DP  RH WIND       PRES   REMARKS
MOLINE         CLOUDY    73  68  84 SW10      29.77R
STERLING*      CLOUDY    71  69  93 SW8       29.77S
SAVANNA*       PTSUNNY   73  70  91 SW8       29.75S
$$

ILZ003-004-008-010-011-017-018-171400-
NORTH CENTRAL ILLINOIS

CITY           SKY/WX    TMP DP  RH WIND       PRES   REMARKS
ROCKFORD       CLOUDY    73  69  87 S10       29.76R
FREEPORT*      CLOUDY    70  69  96 SW13      29.77R
ROCHELLE*      PTSUNNY   71  69  95 S9        29.77F
PERU*          CLOUDY    70  68  92 S6        29.80S
$$

ILZ005-006-012>014-019>023-171400-
NORTHEAST ILLINOIS

CITY           SKY/WX    TMP DP  RH WIND       PRES   REMARKS
CHICAGO-OHARE  CLOUDY    73  69  87 SW10      29.78S
CHICAGO-MIDWAY LGT RAIN  73  70  90 S12       29.79S
AURORA         PTSUNNY   72  70  93 S10       29.79S
LANSING*       LGT RAIN  71  67  88 SW8       29.82S
JOLIET*        CLOUDY    73  72  97 S6        29.81R
WAUKEGAN       CLOUDY    73  71  93 S10       29.76S
DUPAGE AIRPORT CLOUDY    72  71  97 S9        29.78S
KANKAKEE*      LGT RAIN  71  70  98 S9        29.84R
WHEELING       CLOUDY    73  72  96 S12       29.79S
MORRIS*        CLOUDY    72  69  93 SW8       29.79S
NORTHERLY ISL    N/A     72  68  87 S13         N/A
$$

LMZ740>746-171400-
SOUTHERN LAKE MICHIGAN

STATION/POSITION SKY/WX   TEMP    WIND        PRES    VSBY  WAVE
                          AIR SEA DIR/SP/G                  HT/PER
                          (F)     (DEG/KT/KT) (MB)    (MI)  (FT/S)
SOUTHERN BUOY              73 71  190/ 16/ 17 1007.6          3/ 4
WILMETTE HARBOR            73 73  190/ 12/ 14   N/A           2/ 3
CALUMET HARBOR             72     190/  8/ 12 1008.5S
BURNS HARBOR               73     190/ 12/ 18 1010.2R
MICHIGAN CITY              73     180/ 14/ 16   N/A
MICHIGAN CITY 6N           74 74  210/ 16/ 19   N/A           2/ 3
ST. JOSEPH                 74 74  210/ 12/ 16 1009.1R         2/ 4
$$

ILZ025>027-034>036-040-047-049-050-058-095>099-171400-
WEST-CENTRAL ILLINOIS

CITY           SKY/WX    TMP DP  RH WIND       PRES   REMARKS
QUINCY         CLOUDY    70  68  93 SW9       29.85R
GALESBURG*     CLOUDY    71  67  89 SW13      29.82R
MACOMB*        CLOUDY    69  67  93 SW9       29.85S
JACKSONVILLE*  CLOUDY    69  66  90 SW10G16   29.86S
PITTSFIELD*    CLOUDY    70  68  93 SW8       29.88R
$$

ILZ028>032-037-038-041>044-048-051>054-059>061-171400-
CENTRAL ILLINOIS

CITY           SKY/WX    TMP DP  RH WIND       PRES   REMARKS
PONTIAC        CLOUDY    72  71  98 SW9       29.84R
BLOOMINGTON    CLOUDY    70  68  93 SW14      29.86R
DECATUR        CLOUDY    72  68  87 SW8       29.87F
PEORIA         CLOUDY    72  70  93 SW14      29.82R
LACON*         CLOUDY    73  69  89 SW8       29.80S
LINCOLN*       CLOUDY    72  70  94 SW3       29.86R
SPRINGFIELD    CLOUDY    73  68  84 SW10G17   29.86R
TAYLORVILLE    MOSUNNY   70  68  94 S7        29.88S
$$

ILZ033-039-045-046-055>057-062-063-171400-
EAST-CENTRAL ILLINOIS

CITY           SKY/WX    TMP DP  RH WIND       PRES   REMARKS
CHAMPAIGN      CLOUDY    72  70  93 SW9       29.88S
RANTOUL*       CLOUDY    73  71  93 SW9       29.87F
MATTOON        LGT RAIN  71  71 100 SW5       29.89S FOG
PARIS*         CLOUDY    72  71  99 W7        29.90S
$$

ILZ079-100>102-171400-
SOUTHWEST ILLINOIS

CITY           SKY/WX    TMP DP  RH WIND       PRES   REMARKS
ALTON          MOSUNNY   70  68  94 SW9       29.90R
BELLEVILLE     MOSUNNY   71  68  90 W6        29.91S
CAHOKIA*       MOSUNNY   72  67  84 SW6       29.89F
SPARTA*        MOSUNNY   70  69  98 SW5       29.93S
$$

ILZ064>066-069>071-074>076-080>082-084>086-088>090-092>094-171400-
SOUTH-CENTRAL ILLINOIS

CITY           SKY/WX    TMP DP  RH WIND       PRES   REMARKS
CARBONDALE     CLOUDY    75  74  96 SW8       29.91S
CAIRO*         CLOUDY    77  74  92 S12       29.93R
EFFINGHAM*     CLOUDY    71  71 100 SW3       29.92S
MARION         PTSUNNY   77  77 100 SW9       29.92R
MT. VERNON     CLOUDY    74  73  97 W6        29.91R
CENTRALIA*     CLOUDY    72  71  97 W3        29.91S
SALEM*         CLOUDY    73  70  90 W6        29.91S
METROPOLIS*    PTSUNNY   80  75  86 SW10      29.94S HX  84
$$

ILZ067-068-072-073-078-083-087-091-171400-
SOUTHEAST ILLINOIS

CITY           SKY/WX    TMP DP  RH WIND       PRES   REMARKS
LAWRENCEVILLE  LGT RAIN  77  76  96 SW10      29.90R
FLORA*         CLOUDY    76  74  94 W8        29.89S
FAIRFIELD*     CLOUDY    74  74 100 SW6       29.89R
HARRISBURG*    CLOUDY    78  76  95 SW6       29.91S HX  80
ROBINSON*      CLOUDY    75  74  98 SW6       29.90S FOG
CARMI*         PTSUNNY   77  76  96 S10       29.90R
$$

ABBREVIATIONS USED IN REMARKS
   TC - TEMPERATURE IN CELSIUS
  WCI - WIND CHILL INDEX
   HX - HEAT INDEX
  VSB - VISIBILITY
$$




USA.gov is the U.S. government's official web portal to all federal, state and local government web resources and services.